DW8947 Weather Reports


time (UTC)temp
F
wind
direction
speed
knots
gust
knots
rain 1hr
in
rain 24hr
in
rain mn
in
humidity
%
barometer
mb
20240614121704 49 217 0.0 0.0 0.00 0.00 0.00 90 1018.9
20240614121204 49 217 0.0 0.0 0.00 0.00 0.00 89 1019.0
20240614120705 49 217 0.0 0.0 0.00 0.00 0.00 89 1018.9
20240614120205 49 217 0.0 0.0 0.00 0.00 0.00 89 1018.8
20240614115704 49 217 0.0 0.0 0.00 0.00 0.00 89 1018.8
20240614113704 49 234 0.0 0.0 0.00 0.00 0.00 89 1018.8
20240614112204 49 234 0.0 0.0 0.00 0.00 0.00 88 1018.7
20240614111704 49 234 0.0 0.0 0.00 0.00 0.00 88 1018.8
20240614111205 49 234 0.0 0.0 0.00 0.00 0.00 88 1018.8
20240614103205 50 234 0.0 0.0 0.00 0.00 0.00 87 1018.7
20240614100705 50 234 0.0 0.0 0.00 0.00 0.00 87 1018.6
20240614100204 50 234 0.0 0.0 0.00 0.00 0.00 87 1018.6
20240614095704 50 234 0.0 0.0 0.00 0.00 0.00 87 1018.6
20240614095205 50 234 0.0 0.9 0.00 0.00 0.00 87 1018.5
20240614093704 50 234 0.0 0.0 0.00 0.00 0.00 87 1018.3
20240614093204 49 234 0.0 0.0 0.00 0.00 0.00 87 1018.2
20240614091705 50 234 0.0 0.9 0.00 0.00 0.00 87 1018.2
20240614091204 50 234 0.0 0.0 0.00 0.00 0.00 86 1018.3
20240614090705 50 234 0.0 0.9 0.00 0.00 0.00 87 1018.3
20240614090205 50 234 0.0 0.0 0.00 0.00 0.00 86 1018.3
20240614085704 50 234 0.0 0.0 0.00 0.00 0.00 86 1018.2
20240614084704 50 234 0.0 0.9 0.00 0.00 0.00 86 1018.0
20240614084205 50 234 0.0 0.0 0.00 0.00 0.00 86 1018.0
20240614082705 50 234 0.0 0.0 0.00 0.00 0.00 85 1017.9
20240614082205 50 234 0.0 0.0 0.00 0.00 0.00 85 1017.8
20240614080705 50 234 0.0 0.0 0.00 0.00 0.00 84 1017.8
20240614080205 51 234 0.0 0.0 0.00 0.00 0.00 84 1017.8
20240614074704 51 234 0.0 0.0 0.00 0.00 0.00 83 1017.7
20240614074205 51 234 0.0 0.0 0.00 0.00 0.00 83 1017.9
20240614073705 51 234 0.0 0.0 0.00 0.00 0.00 82 1017.9
20240614073205 52 234 0.0 0.0 0.00 0.00 0.00 82 1017.8
20240614072204 52 234 0.0 0.0 0.00 0.00 0.00 81 1017.8
20240614071704 52 234 0.0 0.0 0.00 0.00 0.00 81 1017.6
20240614070705 52 234 0.0 0.0 0.00 0.00 0.00 80 1017.4
20240614062705 53 234 0.0 0.0 0.00 0.00 0.00 78 1017.1
20240614062204 53 234 0.0 0.0 0.00 0.00 0.00 78 1017.1
20240614061204 54 234 0.0 0.9 0.00 0.00 0.00 77 1017.0
20240614060705 54 234 0.0 0.0 0.00 0.00 0.00 76 1017.0
20240614060204 54 234 0.0 0.9 0.00 0.00 0.00 76 1016.9
20240614055704 54 234 0.0 0.9 0.00 0.00 0.00 75 1016.8
20240614054205 55 234 0.0 0.9 0.00 0.00 0.00 74 1016.6
20240614053704 55 234 0.0 0.9 0.00 0.00 0.00 74 1016.4
20240614051204 56 178 0.0 0.0 0.00 0.00 0.00 73 1016.5
20240614050704 56 178 0.0 0.0 0.00 0.00 0.00 73 1016.4
20240614045204 56 178 0.0 0.9 0.00 0.00 0.00 72 1016.1
20240614044704 56 178 0.0 2.6 0.00 0.00 0.00 72 1016.1
20240614043705 57 177 0.0 0.0 0.00 0.00 0.00 70 1015.9
20240614043205 57 177 0.0 0.0 0.00 0.00 0.00 71 1015.9
20240614042204 57 177 0.0 0.0 0.00 0.00 0.00 69 1015.8
20240614041704 58 177 0.0 0.0 0.00 0.00 0.00 69 1015.8
20240614041204 58 177 0.0 0.0 0.00 0.00 0.00 67 1015.8
20240614040705 58 177 0.0 0.0 0.00 0.00 0.00 67 1015.8
20240614040204 58 177 0.0 0.0 0.00 0.00 0.00 67 1015.7
20240614035204 59 177 0.0 0.0 0.00 0.00 0.00 67 1015.7
20240614033204 60 177 0.0 0.9 0.00 0.00 0.00 64 1015.7
20240614032704 60 177 0.0 1.7 0.00 0.00 0.00 65 1015.8
20240614032204 61 179 0.0 0.9 0.00 0.00 0.00 64 1015.7
20240614025204 62 225 0.0 1.7 0.00 0.00 0.00 62 1015.7
20240614024204 63 219 0.0 0.9 0.00 0.00 0.00 63 1015.8
20240614023705 63 208 0.0 2.6 0.00 0.00 0.00 62 1015.8
20240614023204 63 156 0.0 1.7 0.00 0.00 0.00 61 1015.7
20240614020704 64 158 0.0 0.9 0.00 0.00 0.00 56 1015.8
20240614020204 64 158 0.0 0.9 0.00 0.00 0.00 58 1015.9
20240614015204 64 158 0.0 0.9 0.00 0.00 0.00 59 1015.9
20240614013205 65 158 0.9 2.6 0.00 0.00 0.00 54 1015.8
20240614012704 65 140 0.9 2.6 0.00 0.00 0.00 53 1015.8
20240614011704 66 192 0.0 0.0 0.00 0.00 0.00 55 1015.8
20240614004704 67 152 0.0 0.9 0.00 0.00 0.00 55 1015.7
20240614004204 68 156 0.9 1.7 0.00 0.00 0.00 53 1015.6
20240614003705 68 125 0.0 2.6 0.00 0.00 0.00 54 1015.6
20240614003204 68 142 0.0 0.9 0.00 0.00 0.00 54 1015.5
20240614002705 68 164 0.0 1.7 0.00 0.00 0.00 54 1015.4
20240614001705 68 129 0.0 4.3 0.00 0.00 0.00 52 1015.5
20240614001204 68 169 0.0 0.9 0.00 0.00 0.00 51 1015.6
20240614000704 68 167 0.0 1.7 0.00 0.00 0.00 54 1015.6
20240613235705 68 171 0.0 1.7 0.00 0.00 0.00 55 1015.6
20240613234705 68 281 0.0 0.9 0.00 0.00 0.00 55 1015.6
20240613234205 68 281 0.0 0.9 0.00 0.00 0.00 53 1015.6
20240613233704 69 281 0.0 0.9 0.00 0.00 0.00 53 1015.6
20240613233204 69 281 0.0 1.7 0.00 0.00 0.00 53 1015.5
20240613232704 68 231 0.0 1.7 0.00 0.00 0.00 53 1015.6
20240613232204 68 231 0.0 0.9 0.00 0.00 0.00 52 1015.6
20240613231704 68 231 0.0 0.9 0.00 0.00 0.00 51 1015.5
20240613231204 69 231 0.9 1.7 0.00 0.00 0.00 52 1015.4
20240613230705 69 231 0.9 1.7 0.00 0.00 0.00 52 1015.5
20240613230204 69 231 0.0 0.9 0.00 0.00 0.00 54 1015.6
20240613225204 69 231 0.0 0.9 0.00 0.00 0.00 52 1015.5
20240613224704 69 231 0.0 0.9 0.00 0.00 0.00 51 1015.6
20240613222704 70 231 0.0 0.9 0.00 0.00 0.00 49 1015.5
20240613222205 71 231 0.9 2.6 0.00 0.00 0.00 47 1015.5
20240613221205 71 221 0.0 1.7 0.00 0.00 0.00 46 1015.6
20240613214204 72 299 0.0 1.7 0.00 0.00 0.00 46 1015.8
20240613213704 71 313 0.0 0.9 0.00 0.00 0.00 46 1015.9
20240613212704 71 319 0.0 0.9 0.00 0.00 0.00 42 1016.0
20240613211204 70 2 0.0 0.9 0.00 0.00 0.00 41 1016.2
20240613210205 69 2 0.0 0.9 0.00 0.00 0.00 43 1016.4
20240613205704 69 10 0.0 0.9 0.00 0.00 0.00 41 1016.5
20240613204704 70 10 0.0 2.6 0.00 0.00 0.00 41 1016.5
20240613204205 69 10 0.0 1.7 0.00 0.00 0.00 44 1016.5
20240613202705 69 349 0.0 0.9 0.00 0.00 0.00 47 1016.7
20240613200205 68 349 0.0 0.9 0.00 0.00 0.00 50 1016.9
20240613195705 68 349 0.0 0.9 0.00 0.00 0.00 53 1016.9
20240613194705 67 349 0.0 0.9 0.00 0.00 0.00 54 1017.0
20240613193704 66 358 0.0 1.7 0.00 0.00 0.00 55 1017.1
20240613192704 66 358 0.0 0.9 0.00 0.00 0.00 58 1017.3
20240613192204 66 358 0.0 2.6 0.00 0.00 0.00 58 1017.3
20240613191704 66 354 0.0 0.9 0.00 0.00 0.00 59 1017.3
20240613190705 66 354 0.0 1.7 0.00 0.00 0.00 59 1017.3
20240613185704 65 351 0.0 1.7 0.00 0.00 0.00 62 1017.4
20240613184704 65 358 0.0 0.9 0.00 0.00 0.00 61 1017.5
20240613183204 64 21 0.9 2.6 0.00 0.00 0.00 63 1017.6
20240613182205 64 117 0.0 0.9 0.00 0.00 0.00 61 1017.6
20240613181704 65 117 0.0 1.7 0.00 0.00 0.00 61 1017.6
20240613181205 64 115 0.0 0.9 0.00 0.00 0.00 62 1017.7
20240613175704 65 123 0.0 0.9 0.00 0.00 0.00 63 1017.6
20240613175205 65 122 0.0 1.7 0.00 0.00 0.00 63 1017.7
20240613174704 64 122 0.0 0.9 0.00 0.00 0.00 62 1017.7
20240613174204 65 122 0.0 0.9 0.00 0.00 0.00 63 1017.8
20240613172704 64 90 0.0 1.7 0.00 0.00 0.00 65 1017.9
20240613172204 64 96 0.0 0.9 0.00 0.00 0.00 66 1018.0
20240613164204 62 8 0.0 0.9 0.00 0.00 0.00 68 1018.1
20240613163205 61 8 0.0 0.9 0.00 0.00 0.00 69 1018.1
20240613160704 59 10 0.0 0.9 0.00 0.00 0.00 74 1018.2
20240613155704 59 10 0.0 0.9 0.00 0.00 0.00 76 1018.2
20240613155204 58 10 0.0 0.0 0.00 0.00 0.00 78 1018.3
20240613154705 57 10 0.0 0.9 0.00 0.00 0.00 80 1018.3
20240613152705 54 10 0.0 0.9 0.00 0.00 0.00 85 1018.5
20240613152204 53 10 0.0 0.9 0.00 0.00 0.00 87 1018.5
20240613151704 52 10 0.0 0.0 0.00 0.00 0.00 89 1018.5
20240613150204 50 10 0.0 0.0 0.00 0.00 0.00 91 1018.5
20240613145205 49 10 0.0 0.0 0.00 0.00 0.00 92 1018.6
20240613143704 49 10 0.0 0.0 0.00 0.00 0.00 92 1018.8
20240613143205 48 10 0.0 0.0 0.00 0.00 0.00 92 1018.7
20240613142705 48 10 0.0 0.0 0.00 0.00 0.00 92 1018.6
20240613135204 47 10 0.0 0.0 0.00 0.00 0.00 92 1018.5
20240613134704 47 10 0.0 0.0 0.00 0.00 0.00 92 1018.7
20240613134204 46 10 0.0 0.0 0.00 0.00 0.00 92 1018.6
20240613132704 46 10 0.0 0.0 0.00 0.00 0.00 92 1018.7
20240613132205 46 10 0.0 0.0 0.00 0.00 0.00 92 1018.6
20240613131704 46 10 0.0 0.0 0.00 0.00 0.00 92 1018.5
20240613131205 46 10 0.0 0.0 0.00 0.00 0.00 92 1018.5
20240613123705 46 10 0.0 0.0 0.00 0.00 0.00 92 1018.7
20240613123204 46 10 0.0 0.0 0.00 0.00 0.00 92 1018.7